SCP
-0 -0 -0 -0 -0 -0 -0 -0 -0 -0 -0 -0 -0 -0 -0 -0 -0 -0 -0 -0 -0 -0 -0 -0 -0 0 0 0 0 -0 -0 0 -0 0 0 0 0 0 0 0 0 0 0 0 0 0 0
-0 -0 -0 -0 -0 -0 -0 -0 -0 -0 -0 -0 -0 -0 -0 -0 -0 -0 -0 -0 -0 -0 -0 -0 0 0 -0 0 0 -0 -0 0 0 0 0 0 0 0 0 0 0 0 0 0 0 0 0
-0 -0 -0 -0 -0 -0 -0 -0 -0 -0 -0 -0 -0 -0 -0 -0 -0 -0 -0 -0 -0 -0 -0 -0 0 -0 0 0 0 -0 0 0 0 0 0 0 0 0 0 0 0 0 0 0 0 0 0
-0 -0 -0 -0 -0 -0 -0 -0 -0 -0 -0 -0 -0 -0 -0 -0 -0 -0 -0 -0 -0 -0 -0 -0 -0 -0 0 0 0 0 0 0 0 0 0 0 0 0 0 0 0 0 0 -0 0 0 0
-0 -0 -0 -0 -0 -0 -0 -0 -0 -0 -0 -0 -0 -0 -0 -0 -0 -0 -0 -0 -0 0 0 0 -0 0 0 0 0 0 0 0 0 0 0 0 0 0 0 0 0 0 0 0 0 0 0
-0 -0 -0 -0 -0 -0 -0 -0 -0 -0 -0 -0 -0 -0 -0 -0 -0 -0 -0 -0 0 0 0 0 0 0 0 0 0 0 0 0 0 0 0 0 0 0 0 0 0 0 0 0 0 0 0
-0 -0 -0 -0 -0 -0 -0 -0 -0 -0 -0 -0 -0 -0 -0 -0 -0 -0 -0 0 0 -0 0 0 0 0 0 0 0 0 0 0 0 0 0 0 0 0 0 0 0 0 0 0 -0 0 0
0 0 0 -0 -0 -0 -0 -0 -0 -0 -0 -0 -0 -0 -0 -0 -0 -0 0 0 0 0 0 -0 0 0 0 0 0 0 0 0 0 0 0 0 0 0 0 0 0 0 -0 0 0 0 0
0 0 0 0 0 0 -0 -0 -0 -0 -0 -0 -0 -0 -0 -0 -0 0 0 0 0 0 0 0 0 0 0 0 0 0 0 0 0 0 0 0 0 0 0 0 0 0 0 0 0 0 0
0 0 0 0 0 0 0 0 -0 -0 -0 -0 -0 -0 -0 -0 0 0 0 0 0 -0 0 0 0 0 0 0 0 0 0 0 0 0 0 0 0 0 0 0 0 -0 0 0 -0 -0 0
0 0 0 0 0 0 0 0 0 0 -0 -0 -0 -0 -0 -0 0 0 0 0 0 -0 0 0 0 0 0 0 0 0 0 0 0 0 0 0 0 0 0 0 0 0 0 0 0 -0 0
0 0 0 0 0 0 0 0 0 0 0 0 -0 -0 -0 -0 0 0 0 0 0 0 0 0 0 0 0 0 0 0 0 0 0 0 0 0 0 0 0 0 0 0 0 0 -0 0 -0
0 0 0 0 0 0 0 0 0 0 0 0 0 0 0 0 0 0 0 0 -0 0 0 0 0 0 0 0 0 0 0 0 0 0 0 0 0 0 0 0 0 0 0 -0 -0 0 0
0 0 0 0 0 0 0 0 0 0 0 0 -0 0 0 0 0 0 0 0 0 0 0 0 0 0 0 0 0 0 0 0 0 0 0 0 0 0 -0 0 0 -0 0 0 0 0 0
0 0 0 0 0 0 0 0 0 0 0 -0 -0 0 0 0 0 0 0 0 0 0 0 0 0 0 0 0 0 0 0 0 0 0 0 0 0 0 0 0 0 0 0 0 0 0 0
0 0 0 0 0 0 0 0 0 0 0 0 0 0 0 0 0 0 0 0 0 0 0 0 0 0 0 0 0 0 0 0 0 0 0 0 0 0 0 0 0 0 0 0 0 0 0
0 0 0 0 0 0 0 0 0 -0 0 0 0 0 0 0 0 0 0 0 0 0 0 0 0 0 0 0 0 0 0 0 0 0 0 0 0 0 0 0 0 0 0 0 0 0 0
0 0 0 0 0 0 0 0 0 0 -0 0 0 0 0 0 0 0 0 0 0 0 0 0 0 0 0 0 0 0 0 0 0 0 0 0 0 0 0 0 0 0 0 0 0 0 0
0 0 0 0 0 0 0 0 0 0 0 0 0 0 0 0 0 0 0 0 0 0 0 0 0 0 0 0 0 0 0 0 0 0 0 0 0 0 0 0 0 0 0 0 0 0 0
0 0 0 0 0 0 0 0 0 -0 0 0 0 0 0 0 0 0 0 0 0 0 0 0 0 0 0 0 0 0 0 0 0 0 0 0 0 0 0 0 0 0 0 0 0 0 0
0 0 0 0 0 0 0 0 0 0 0 0 0 0 0 0 0 0 0 0 0 0 0 0 0 0 0 0 0 0 0 0 0 0 0 0 0 0 0 0 0 0 0 0 0 0 0
0 0 0 0 0 0 0 0 0 0 -0 0 0 0 0 0 0 0 0 0 0 0 0 0 0 0 0 0 0 0 0 0 0 0 0 0 0 0 0 0 0 0 0 0 0 0 0
-0 0 0 0 0 0 0 0 0 0 0 0 0 0 0 0 0 0 0 0 0 0 0 0 0 0 0 0 0 0 0 0 0 0 0 0 0 0 0 0 0 0 0 0 0 0 0
0 0 0 0 0 0 0 0 0 0 0 0 0 0 0 0 0 0 0 0 0 0 0 0 0 0 0 0 0 0 0 0 0 0 0 0 0 0 0 0 0 0 0 0 0 0 0
-0 -0 0 0 0 0 0 0 0 0 0 0 0 0 0 0 0 0 0 0 0 0 0 0 0 0 0 0 0 0 0 0 0 0 0 0 0 0 0 0 0 0 0 0 0 0 0
-0 -0 -0 0 0 0 0 0 0 0 0 0 0 0 0 0 0 0 0 0 0 0 0 0 0 0 0 0 0 0 0 0 0 0 0 0 0 0 0 0 0 0 0 0 0 0 0
0 -0 -0 0 0 0 0 0 0 0 0 0 0 0 0 0 0 0 0 0 0 0 0 0 0 0 0 0 0 0 0 0 0 0 0 0 0 0 0 0 0 0 0 0 0 0 0
0 0 -0 -0 -0 0 0 0 0 0 0 0 0 0 0 0 0 0 0 0 0 0 0 0 0 0 0 0 0 0 0 0 0 0 0 0 0 0 0 0 0 0 0 0 1 1 1
0 0 0 -0 -0 -0 0 0 0 0 0 0 -0 0 0 0 0 0 0 0 0 0 0 0 0 0 0 0 0 0 0 0 0 0 0 0 0 0 0 0 0 0 0 0 1 1 1
Wind_Speed_500mb
21 20 21 21 20 20 18 18 19 18 18 20 22 23 24 24 25 25 25 25 23 22 20 19 19 18 17 10 4 7 10 18 15 16 9 4 2 6 6 6 5 10 13 12 9 11 14
19 20 21 22 22 22 21 21 22 22 22 23 24 25 25 25 26 26 26 25 24 22 20 20 19 17 14 15 8 7 16 17 18 17 4 1 5 8 8 7 9 18 21 19 12 6 11
20 20 20 20 22 22 23 23 24 24 25 26 26 26 27 26 26 26 26 26 25 22 21 20 18 16 16 14 7 13 23 16 21 14 6 2 7 11 13 7 9 14 15 10 3 4 9
21 21 21 21 22 23 23 25 26 27 27 28 28 29 29 29 27 26 26 27 24 22 21 19 16 13 13 13 12 16 22 18 18 10 3 4 8 13 9 13 8 10 12 14 11 6 7
23 24 24 24 23 24 26 27 28 29 30 31 31 31 31 31 28 26 26 26 22 21 19 16 11 7 10 7 13 20 24 18 17 9 4 3 9 11 10 9 15 9 8 9 8 6 0
25 26 27 27 28 28 29 30 31 32 32 33 32 32 31 31 29 25 24 20 19 16 15 13 16 10 18 11 19 25 25 20 13 16 10 4 9 14 12 17 8 5 10 9 5 4 7
26 28 29 29 30 31 33 34 34 34 34 35 34 32 31 30 27 24 17 12 10 9 18 22 3 12 13 11 21 21 29 24 14 14 19 8 18 15 8 5 8 5 3 4 18 8 8
29 30 30 31 32 32 33 36 37 36 35 36 35 33 30 28 24 21 7 5 2 4 16 27 36 26 15 11 18 25 29 30 21 23 16 11 21 6 2 5 4 11 14 11 11 11 13
31 32 32 32 34 36 35 36 38 38 37 37 37 34 29 25 21 9 8 8 6 8 15 16 28 36 34 26 20 36 41 36 25 25 24 26 11 10 15 5 13 7 9 6 6 4 4
34 34 36 36 35 36 37 38 39 38 38 38 37 34 29 20 12 5 4 11 8 4 11 20 19 20 30 27 24 25 42 32 18 30 20 19 11 14 20 14 15 22 6 2 6 15 4
40 39 39 39 40 40 39 39 40 39 37 37 38 34 26 19 12 5 13 5 4 3 10 14 15 7 21 48 22 35 37 32 28 19 18 13 20 23 22 15 7 12 6 6 4 15 12
41 43 43 42 42 43 42 42 40 40 38 37 36 34 27 18 14 14 17 3 7 13 12 12 14 21 27 46 29 27 39 28 26 27 23 15 5 13 14 16 14 10 13 11 10 16 19
41 42 45 45 43 43 44 44 44 42 39 38 34 33 28 17 7 17 20 10 12 15 7 13 11 21 34 32 38 29 39 38 26 27 29 29 31 25 22 23 23 20 22 16 15 15 3
44 46 45 46 45 44 44 45 45 46 40 39 33 30 23 19 25 22 18 15 17 4 9 6 4 15 32 31 40 33 37 40 45 37 23 28 28 39 33 33 30 25 27 19 14 16 9
44 46 47 46 46 45 45 45 46 45 42 39 31 24 17 18 28 30 28 23 10 4 5 7 8 21 27 28 22 36 35 38 39 35 35 21 26 10 9 18 25 22 23 22 27 13 21
46 47 48 48 46 45 46 46 48 45 40 41 27 10 11 16 28 30 22 29 13 6 8 7 13 11 28 34 31 38 35 27 30 34 43 15 19 20 17 13 12 22 6 18 22 34 35
47 47 49 50 48 47 45 47 47 45 37 32 17 9 10 20 33 25 21 31 23 13 9 7 5 8 11 13 36 32 39 22 17 28 41 36 21 12 13 26 26 18 22 20 24 18 22
48 47 50 50 49 48 47 47 46 45 38 24 4 8 7 37 21 20 25 14 7 14 14 12 10 13 11 7 22 33 36 19 13 12 27 38 20 28 32 22 9 22 23 33 23 29 21
49 49 48 50 51 49 47 46 44 43 43 30 10 5 15 14 14 18 11 19 18 16 16 10 12 9 3 6 10 18 21 10 19 26 18 18 20 22 25 17 16 22 33 32 33 28 32
47 47 47 49 49 48 47 45 42 41 36 21 7 7 10 16 10 16 19 23 19 15 20 18 17 13 18 19 13 6 18 15 13 22 5 18 29 25 23 3 7 20 25 32 40 28 28
45 47 47 48 48 48 48 45 41 38 31 13 5 3 7 10 21 14 10 2 22 14 18 12 13 28 25 23 22 20 16 18 17 19 13 24 24 15 25 6 11 15 17 20 32 38 35
45 45 45 46 47 47 46 47 43 37 29 10 10 9 8 11 8 17 15 18 19 12 11 14 22 15 16 25 22 14 21 19 27 21 22 18 15 12 21 13 15 20 20 23 26 30 33
44 43 45 44 46 46 46 46 45 39 31 10 13 11 8 4 8 11 22 25 16 6 12 15 16 13 22 20 21 28 24 15 12 18 25 21 15 14 25 10 15 26 30 32 30 29 28
44 43 43 43 43 43 44 44 43 40 35 22 15 9 9 8 9 12 6 10 20 13 14 7 18 14 5 18 16 21 27 29 20 16 17 17 19 15 20 12 29 14 9 12 21 29 26
44 43 43 43 41 41 41 41 41 38 33 25 16 6 8 12 9 19 19 15 18 19 18 18 19 9 18 14 16 14 14 19 26 5 12 12 18 16 18 26 31 31 19 21 27 36 35
40 41 42 43 42 39 38 37 38 37 34 27 14 8 6 15 4 6 14 11 15 14 12 15 8 12 9 12 17 20 19 19 26 19 8 12 7 14 21 25 37 29 21 6 11 34 35
40 39 39 40 41 41 37 35 35 36 35 30 13 11 6 16 14 10 9 9 5 9 11 2 5 8 8 13 18 16 19 4 16 26 14 20 16 24 23 26 31 22 11 5 25 28 13
41 41 39 37 38 39 39 35 34 34 35 31 17 14 8 14 32 30 21 20 14 11 10 11 11 11 10 12 16 9 16 11 11 8 8 17 18 20 22 25 40 12 6 19 16 9 15
41 40 39 37 37 38 37 37 35 34 34 33 13 23 19 20 25 32 39 38 34 27 14 6 10 6 10 8 5 5 11 5 17 21 10 18 20 18 12 10 2 7 21 10 7 14 20
Wind_Direction_500mb
28 25 24 20 15 13 9 0 349 335 327 324 324 321 319 315 312 309 306 305 304 304 306 308 313 322 335 284 267 261 187 176 172 155 146 151 230 277 259 326 261 249 337 311 274 267 266
23 18 16 14 10 5 1 354 347 337 330 327 325 320 317 314 309 308 303 299 299 299 300 300 305 313 320 267 265 208 168 177 175 166 176 111 350 328 284 285 291 322 299 280 277 243 238
14 9 6 4 360 355 349 345 338 335 332 328 324 321 318 313 310 308 302 296 295 294 292 291 296 304 287 275 217 169 166 174 177 175 171 25 4 320 325 266 307 287 279 183 156 16 246
5 360 356 353 350 344 340 339 337 333 329 324 322 320 317 314 313 309 301 295 292 290 284 281 283 293 266 251 195 171 173 169 173 172 157 15 343 308 271 305 237 238 248 172 86 344 89
359 355 350 346 343 339 335 336 334 328 324 322 320 318 316 315 313 309 301 296 294 289 275 267 276 250 250 221 189 178 172 174 175 180 188 333 317 271 247 246 196 214 127 101 162 40 284
353 350 347 345 341 338 336 334 331 326 322 320 317 316 314 313 312 309 301 293 290 284 258 255 242 253 223 181 172 173 176 166 182 182 188 229 247 245 214 226 168 105 166 102 83 123 223
346 344 341 340 338 336 335 333 330 327 321 316 315 315 314 312 312 312 300 292 272 235 221 231 254 235 150 157 160 177 184 182 187 197 209 228 248 216 93 32 338 283 207 112 74 51 232
339 336 334 333 332 329 328 329 328 325 320 316 315 316 314 311 311 311 273 251 245 286 290 247 238 237 211 165 177 178 174 188 202 214 141 221 232 190 255 303 238 187 191 115 107 66 270
339 335 331 328 330 328 326 325 324 322 321 318 316 317 314 312 310 288 237 201 255 320 260 239 220 226 216 208 214 183 181 195 204 222 214 246 93 145 266 216 211 139 44 77 48 133 160
340 335 332 330 329 328 329 327 324 321 320 317 316 316 315 317 317 280 219 202 308 203 266 172 200 218 195 200 222 197 193 193 178 222 213 241 214 198 248 251 264 150 24 320 206 249 228
345 339 335 330 331 330 330 329 326 321 318 317 314 313 313 306 270 261 215 233 138 194 265 114 149 187 191 191 160 190 192 204 225 191 203 203 196 196 222 266 268 72 348 5 304 256 284
347 343 339 334 329 329 329 329 328 324 320 316 312 309 306 295 261 218 193 226 175 229 236 151 152 181 176 202 199 147 182 212 230 224 226 252 150 197 199 255 249 293 243 222 224 266 260
349 347 343 337 333 330 329 330 329 326 322 314 310 302 293 267 214 195 186 178 224 244 122 160 185 187 201 182 191 187 186 197 202 202 215 219 223 223 219 222 243 232 236 240 226 216 283
347 348 349 344 337 334 333 331 330 330 326 315 313 298 278 247 209 183 177 212 239 325 249 110 226 200 203 190 200 197 194 203 214 215 242 210 213 212 203 214 243 213 248 265 268 260 249
349 349 348 349 346 340 337 335 334 333 330 318 320 303 273 224 199 185 199 214 226 254 352 298 204 209 195 193 222 201 211 215 210 216 228 209 237 142 220 232 225 214 238 271 282 243 269
349 350 351 348 347 345 341 338 337 337 334 327 326 299 222 206 188 178 215 235 227 271 313 261 261 221 202 197 201 198 200 219 227 216 233 220 257 186 152 206 218 266 299 223 227 263 264
350 349 352 351 348 346 345 341 341 338 342 334 327 252 267 186 167 196 219 223 238 233 257 281 277 256 262 202 207 201 209 193 204 211 217 231 231 213 185 209 223 189 226 231 282 279 272
354 352 351 351 351 349 348 346 345 341 347 346 345 233 185 151 192 206 227 210 219 221 204 256 283 280 278 239 216 228 215 221 177 191 210 218 228 238 228 230 263 286 247 228 231 232 237
356 354 354 353 352 352 352 351 350 347 350 357 319 278 182 182 219 210 184 223 238 220 224 225 247 243 286 278 234 226 218 148 187 191 193 172 221 236 229 199 204 232 233 244 253 258 266
352 355 355 353 353 353 354 355 355 350 350 351 308 216 170 212 261 283 209 221 213 210 249 248 264 253 253 252 214 208 199 168 179 214 269 222 244 231 248 336 4 198 234 231 239 239 246
349 352 354 355 355 356 355 358 359 356 354 358 307 63 330 194 213 231 235 282 219 216 221 222 227 240 243 243 227 220 221 160 175 170 200 220 242 233 258 307 281 278 268 222 243 253 267
350 351 352 355 356 358 358 358 3 5 3 33 334 340 326 285 258 233 197 212 237 218 233 230 238 260 261 240 250 241 212 214 188 181 196 205 236 241 253 217 246 259 256 259 243 254 270
353 353 352 353 357 360 359 359 2 10 19 24 349 335 305 163 223 234 233 238 230 238 225 265 279 291 245 243 275 277 278 292 289 222 210 225 229 226 255 267 288 264 255 261 253 259 265
354 354 355 354 354 358 1 359 0 6 14 18 351 341 291 255 246 238 303 263 241 225 280 298 293 258 358 322 276 253 234 235 241 228 263 211 232 243 258 249 249 278 21 324 283 284 279
351 352 353 355 355 355 356 358 358 2 4 8 354 18 315 280 295 264 250 263 267 253 250 273 279 273 302 262 233 199 200 206 211 178 217 256 218 226 249 247 265 259 265 256 270 272 273
346 348 348 350 351 353 352 352 353 355 358 359 346 347 316 304 153 304 284 267 272 256 239 241 256 291 265 241 225 216 213 214 200 180 206 200 240 262 245 260 270 288 323 299 279 265 252
337 340 343 344 346 347 349 346 345 347 350 351 323 327 314 277 278 258 251 289 271 255 268 257 314 251 234 220 224 221 224 253 222 209 184 202 229 234 241 261 269 302 357 190 244 290 121
334 333 334 338 340 342 342 342 341 341 341 347 320 312 262 276 282 265 249 255 255 243 268 37 255 203 239 241 237 212 266 189 258 266 223 227 232 248 252 264 280 51 170 237 360 342 142
337 333 330 330 333 336 337 337 337 335 333 333 341 318 290 258 263 280 263 254 244 242 273 261 330 310 359 275 229 318 231 235 256 253 166 250 260 293 280 291 29 267 259 290 276 142 136
Wind_Speed_850mb
21 20 21 21 20 20 18 18 19 18 18 20 22 23 24 24 25 25 25 25 23 22 20 19 19 18 17 10 4 7 10 18 15 16 9 4 2 6 6 6 5 10 13 12 9 11 14
19 20 21 22 22 22 21 21 22 22 22 23 24 25 25 25 26 26 26 25 24 22 20 20 19 17 14 15 8 7 16 17 18 17 4 1 5 8 8 7 9 18 21 19 12 6 11
20 20 20 20 22 22 23 23 24 24 25 26 26 26 27 26 26 26 26 26 25 22 21 20 18 16 16 14 7 13 23 16 21 14 6 2 7 11 13 7 9 14 15 10 3 4 9
21 21 21 21 22 23 23 25 26 27 27 28 28 29 29 29 27 26 26 27 24 22 21 19 16 13 13 13 12 16 22 18 18 10 3 4 8 13 9 13 8 10 12 14 11 6 7
23 24 24 24 23 24 26 27 28 29 30 31 31 31 31 31 28 26 26 26 22 21 19 16 11 7 10 7 13 20 24 18 17 9 4 3 9 11 10 9 15 9 8 9 8 6 0
25 26 27 27 28 28 29 30 31 32 32 33 32 32 31 31 29 25 24 20 19 16 15 13 16 10 18 11 19 25 25 20 13 16 10 4 9 14 12 17 8 5 10 9 5 4 7
26 28 29 29 30 31 33 34 34 34 34 35 34 32 31 30 27 24 17 12 10 9 18 22 3 12 13 11 21 21 29 24 14 14 19 8 18 15 8 5 8 5 3 4 18 8 8
29 30 30 31 32 32 33 36 37 36 35 36 35 33 30 28 24 21 7 5 2 4 16 27 36 26 15 11 18 25 29 30 21 23 16 11 21 6 2 5 4 11 14 11 11 11 13
31 32 32 32 34 36 35 36 38 38 37 37 37 34 29 25 21 9 8 8 6 8 15 16 28 36 34 26 20 36 41 36 25 25 24 26 11 10 15 5 13 7 9 6 6 4 4
34 34 36 36 35 36 37 38 39 38 38 38 37 34 29 20 12 5 4 11 8 4 11 20 19 20 30 27 24 25 42 32 18 30 20 19 11 14 20 14 15 22 6 2 6 15 4
40 39 39 39 40 40 39 39 40 39 37 37 38 34 26 19 12 5 13 5 4 3 10 14 15 7 21 48 22 35 37 32 28 19 18 13 20 23 22 15 7 12 6 6 4 15 12
41 43 43 42 42 43 42 42 40 40 38 37 36 34 27 18 14 14 17 3 7 13 12 12 14 21 27 46 29 27 39 28 26 27 23 15 5 13 14 16 14 10 13 11 10 16 19
41 42 45 45 43 43 44 44 44 42 39 38 34 33 28 17 7 17 20 10 12 15 7 13 11 21 34 32 38 29 39 38 26 27 29 29 31 25 22 23 23 20 22 16 15 15 3
44 46 45 46 45 44 44 45 45 46 40 39 33 30 23 19 25 22 18 15 17 4 9 6 4 15 32 31 40 33 37 40 45 37 23 28 28 39 33 33 30 25 27 19 14 16 9
44 46 47 46 46 45 45 45 46 45 42 39 31 24 17 18 28 30 28 23 10 4 5 7 8 21 27 28 22 36 35 38 39 35 35 21 26 10 9 18 25 22 23 22 27 13 21
46 47 48 48 46 45 46 46 48 45 40 41 27 10 11 16 28 30 22 29 13 6 8 7 13 11 28 34 31 38 35 27 30 34 43 15 19 20 17 13 12 22 6 18 22 34 35
47 47 49 50 48 47 45 47 47 45 37 32 17 9 10 20 33 25 21 31 23 13 9 7 5 8 11 13 36 32 39 22 17 28 41 36 21 12 13 26 26 18 22 20 24 18 22
48 47 50 50 49 48 47 47 46 45 38 24 4 8 7 37 21 20 25 14 7 14 14 12 10 13 11 7 22 33 36 19 13 12 27 38 20 28 32 22 9 22 23 33 23 29 21
49 49 48 50 51 49 47 46 44 43 43 30 10 5 15 14 14 18 11 19 18 16 16 10 12 9 3 6 10 18 21 10 19 26 18 18 20 22 25 17 16 22 33 32 33 28 32
47 47 47 49 49 48 47 45 42 41 36 21 7 7 10 16 10 16 19 23 19 15 20 18 17 13 18 19 13 6 18 15 13 22 5 18 29 25 23 3 7 20 25 32 40 28 28
45 47 47 48 48 48 48 45 41 38 31 13 5 3 7 10 21 14 10 2 22 14 18 12 13 28 25 23 22 20 16 18 17 19 13 24 24 15 25 6 11 15 17 20 32 38 35
45 45 45 46 47 47 46 47 43 37 29 10 10 9 8 11 8 17 15 18 19 12 11 14 22 15 16 25 22 14 21 19 27 21 22 18 15 12 21 13 15 20 20 23 26 30 33
44 43 45 44 46 46 46 46 45 39 31 10 13 11 8 4 8 11 22 25 16 6 12 15 16 13 22 20 21 28 24 15 12 18 25 21 15 14 25 10 15 26 30 32 30 29 28
44 43 43 43 43 43 44 44 43 40 35 22 15 9 9 8 9 12 6 10 20 13 14 7 18 14 5 18 16 21 27 29 20 16 17 17 19 15 20 12 29 14 9 12 21 29 26
44 43 43 43 41 41 41 41 41 38 33 25 16 6 8 12 9 19 19 15 18 19 18 18 19 9 18 14 16 14 14 19 26 5 12 12 18 16 18 26 31 31 19 21 27 36 35
40 41 42 43 42 39 38 37 38 37 34 27 14 8 6 15 4 6 14 11 15 14 12 15 8 12 9 12 17 20 19 19 26 19 8 12 7 14 21 25 37 29 21 6 11 34 35
40 39 39 40 41 41 37 35 35 36 35 30 13 11 6 16 14 10 9 9 5 9 11 2 5 8 8 13 18 16 19 4 16 26 14 20 16 24 23 26 31 22 11 5 25 28 13
41 41 39 37 38 39 39 35 34 34 35 31 17 14 8 14 32 30 21 20 14 11 10 11 11 11 10 12 16 9 16 11 11 8 8 17 18 20 22 25 40 12 6 19 16 9 15
41 40 39 37 37 38 37 37 35 34 34 33 13 23 19 20 25 32 39 38 34 27 14 6 10 6 10 8 5 5 11 5 17 21 10 18 20 18 12 10 2 7 21 10 7 14 20
Wind_Direction_850mb
28 25 24 20 15 13 9 0 349 335 327 324 324 321 319 315 312 309 306 305 304 304 306 308 313 322 335 284 267 261 187 176 172 155 146 151 230 277 259 326 261 249 337 311 274 267 266
23 18 16 14 10 5 1 354 347 337 330 327 325 320 317 314 309 308 303 299 299 299 300 300 305 313 320 267 265 208 168 177 175 166 176 111 350 328 284 285 291 322 299 280 277 243 238
14 9 6 4 360 355 349 345 338 335 332 328 324 321 318 313 310 308 302 296 295 294 292 291 296 304 287 275 217 169 166 174 177 175 171 25 4 320 325 266 307 287 279 183 156 16 246
5 360 356 353 350 344 340 339 337 333 329 324 322 320 317 314 313 309 301 295 292 290 284 281 283 293 266 251 195 171 173 169 173 172 157 15 343 308 271 305 237 238 248 172 86 344 89
359 355 350 346 343 339 335 336 334 328 324 322 320 318 316 315 313 309 301 296 294 289 275 267 276 250 250 221 189 178 172 174 175 180 188 333 317 271 247 246 196 214 127 101 162 40 284
353 350 347 345 341 338 336 334 331 326 322 320 317 316 314 313 312 309 301 293 290 284 258 255 242 253 223 181 172 173 176 166 182 182 188 229 247 245 214 226 168 105 166 102 83 123 223
346 344 341 340 338 336 335 333 330 327 321 316 315 315 314 312 312 312 300 292 272 235 221 231 254 235 150 157 160 177 184 182 187 197 209 228 248 216 93 32 338 283 207 112 74 51 232
339 336 334 333 332 329 328 329 328 325 320 316 315 316 314 311 311 311 273 251 245 286 290 247 238 237 211 165 177 178 174 188 202 214 141 221 232 190 255 303 238 187 191 115 107 66 270
339 335 331 328 330 328 326 325 324 322 321 318 316 317 314 312 310 288 237 201 255 320 260 239 220 226 216 208 214 183 181 195 204 222 214 246 93 145 266 216 211 139 44 77 48 133 160
340 335 332 330 329 328 329 327 324 321 320 317 316 316 315 317 317 280 219 202 308 203 266 172 200 218 195 200 222 197 193 193 178 222 213 241 214 198 248 251 264 150 24 320 206 249 228
345 339 335 330 331 330 330 329 326 321 318 317 314 313 313 306 270 261 215 233 138 194 265 114 149 187 191 191 160 190 192 204 225 191 203 203 196 196 222 266 268 72 348 5 304 256 284
347 343 339 334 329 329 329 329 328 324 320 316 312 309 306 295 261 218 193 226 175 229 236 151 152 181 176 202 199 147 182 212 230 224 226 252 150 197 199 255 249 293 243 222 224 266 260
349 347 343 337 333 330 329 330 329 326 322 314 310 302 293 267 214 195 186 178 224 244 122 160 185 187 201 182 191 187 186 197 202 202 215 219 223 223 219 222 243 232 236 240 226 216 283
347 348 349 344 337 334 333 331 330 330 326 315 313 298 278 247 209 183 177 212 239 325 249 110 226 200 203 190 200 197 194 203 214 215 242 210 213 212 203 214 243 213 248 265 268 260 249
349 349 348 349 346 340 337 335 334 333 330 318 320 303 273 224 199 185 199 214 226 254 352 298 204 209 195 193 222 201 211 215 210 216 228 209 237 142 220 232 225 214 238 271 282 243 269
349 350 351 348 347 345 341 338 337 337 334 327 326 299 222 206 188 178 215 235 227 271 313 261 261 221 202 197 201 198 200 219 227 216 233 220 257 186 152 206 218 266 299 223 227 263 264
350 349 352 351 348 346 345 341 341 338 342 334 327 252 267 186 167 196 219 223 238 233 257 281 277 256 262 202 207 201 209 193 204 211 217 231 231 213 185 209 223 189 226 231 282 279 272
354 352 351 351 351 349 348 346 345 341 347 346 345 233 185 151 192 206 227 210 219 221 204 256 283 280 278 239 216 228 215 221 177 191 210 218 228 238 228 230 263 286 247 228 231 232 237
356 354 354 353 352 352 352 351 350 347 350 357 319 278 182 182 219 210 184 223 238 220 224 225 247 243 286 278 234 226 218 148 187 191 193 172 221 236 229 199 204 232 233 244 253 258 266
352 355 355 353 353 353 354 355 355 350 350 351 308 216 170 212 261 283 209 221 213 210 249 248 264 253 253 252 214 208 199 168 179 214 269 222 244 231 248 336 4 198 234 231 239 239 246
349 352 354 355 355 356 355 358 359 356 354 358 307 63 330 194 213 231 235 282 219 216 221 222 227 240 243 243 227 220 221 160 175 170 200 220 242 233 258 307 281 278 268 222 243 253 267
350 351 352 355 356 358 358 358 3 5 3 33 334 340 326 285 258 233 197 212 237 218 233 230 238 260 261 240 250 241 212 214 188 181 196 205 236 241 253 217 246 259 256 259 243 254 270
353 353 352 353 357 360 359 359 2 10 19 24 349 335 305 163 223 234 233 238 230 238 225 265 279 291 245 243 275 277 278 292 289 222 210 225 229 226 255 267 288 264 255 261 253 259 265
354 354 355 354 354 358 1 359 0 6 14 18 351 341 291 255 246 238 303 263 241 225 280 298 293 258 358 322 276 253 234 235 241 228 263 211 232 243 258 249 249 278 21 324 283 284 279
351 352 353 355 355 355 356 358 358 2 4 8 354 18 315 280 295 264 250 263 267 253 250 273 279 273 302 262 233 199 200 206 211 178 217 256 218 226 249 247 265 259 265 256 270 272 273
346 348 348 350 351 353 352 352 353 355 358 359 346 347 316 304 153 304 284 267 272 256 239 241 256 291 265 241 225 216 213 214 200 180 206 200 240 262 245 260 270 288 323 299 279 265 252
337 340 343 344 346 347 349 346 345 347 350 351 323 327 314 277 278 258 251 289 271 255 268 257 314 251 234 220 224 221 224 253 222 209 184 202 229 234 241 261 269 302 357 190 244 290 121
334 333 334 338 340 342 342 342 341 341 341 347 320 312 262 276 282 265 249 255 255 243 268 37 255 203 239 241 237 212 266 189 258 266 223 227 232 248 252 264 280 51 170 237 360 342 142
337 333 330 330 333 336 337 337 337 335 333 333 341 318 290 258 263 280 263 254 244 242 273 261 330 310 359 275 229 318 231 235 256 253 166 250 260 293 280 291 29 267 259 290 276 142 136